QPF
0.01 0.01 0.00 0.00 0.00 0.00 0.00 0.01 0.01 0.04 0.07 0.12 0.16 0.11 0.09 0.07 0.05 0.04 0.04 0.04 0.02 0.02 0.02 0.02 0.01 0.02 0.02 0.02 0.03 0.04 0.05 0.05 0.06 0.08 0.08 0.08 0.07 0.04 0.03 0.03 0.02 0.02 0.02
0.01 0.01 0.01 0.01 0.00 0.00 0.00 0.00 0.01 0.02 0.05 0.09 0.16 0.16 0.10 0.08 0.07 0.04 0.04 0.05 0.05 0.04 0.03 0.03 0.02 0.02 0.02 0.03 0.03 0.03 0.04 0.04 0.05 0.07 0.10 0.09 0.08 0.05 0.04 0.03 0.03 0.02 0.02
0.01 0.01 0.01 0.01 0.00 0.00 0.00 0.00 0.01 0.01 0.02 0.05 0.11 0.20 0.18 0.12 0.12 0.10 0.06 0.04 0.05 0.04 0.04 0.04 0.04 0.04 0.03 0.03 0.03 0.03 0.03 0.04 0.04 0.04 0.05 0.07 0.06 0.04 0.04 0.03 0.03 0.03 0.02
0.01 0.01 0.01 0.01 0.01 0.00 0.00 0.00 0.01 0.01 0.01 0.03 0.06 0.15 0.23 0.18 0.13 0.11 0.09 0.06 0.04 0.04 0.04 0.04 0.04 0.05 0.05 0.05 0.04 0.03 0.03 0.04 0.04 0.04 0.04 0.03 0.03 0.03 0.04 0.03 0.03 0.03 0.02
0.01 0.01 0.01 0.02 0.01 0.01 0.01 0.01 0.01 0.01 0.01 0.01 0.03 0.08 0.19 0.22 0.18 0.14 0.10 0.08 0.07 0.06 0.05 0.05 0.04 0.04 0.05 0.06 0.06 0.05 0.04 0.04 0.04 0.04 0.04 0.04 0.03 0.03 0.04 0.04 0.04 0.04 0.04
0.02 0.01 0.01 0.02 0.01 0.01 0.01 0.01 0.01 0.01 0.02 0.02 0.02 0.04 0.11 0.20 0.22 0.21 0.16 0.10 0.07 0.06 0.07 0.08 0.06 0.04 0.04 0.06 0.07 0.07 0.05 0.04 0.04 0.04 0.03 0.03 0.03 0.04 0.04 0.05 0.05 0.05 0.05
0.03 0.02 0.01 0.01 0.02 0.03 0.02 0.02 0.02 0.02 0.02 0.02 0.02 0.02 0.05 0.12 0.18 0.21 0.20 0.16 0.12 0.08 0.07 0.08 0.08 0.06 0.05 0.06 0.07 0.07 0.06 0.05 0.04 0.03 0.03 0.02 0.02 0.02 0.03 0.04 0.05 0.05 0.04
0.03 0.02 0.02 0.02 0.03 0.04 0.04 0.03 0.02 0.03 0.03 0.02 0.03 0.03 0.03 0.06 0.11 0.15 0.16 0.15 0.15 0.14 0.11 0.08 0.08 0.07 0.07 0.07 0.08 0.07 0.06 0.05 0.04 0.04 0.04 0.03 0.02 0.02 0.02 0.03 0.04 0.04 0.03
0.02 0.03 0.02 0.02 0.03 0.03 0.05 0.05 0.04 0.04 0.05 0.05 0.04 0.04 0.04 0.04 0.06 0.09 0.13 0.13 0.13 0.15 0.16 0.17 0.14 0.11 0.09 0.08 0.08 0.08 0.06 0.06 0.05 0.04 0.04 0.03 0.02 0.02 0.02 0.02 0.03 0.04 0.05
0.02 0.02 0.02 0.02 0.03 0.03 0.03 0.05 0.05 0.04 0.05 0.05 0.05 0.04 0.05 0.05 0.04 0.05 0.06 0.09 0.11 0.12 0.14 0.16 0.18 0.19 0.19 0.16 0.13 0.11 0.07 0.06 0.05 0.05 0.04 0.02 0.01 0.01 0.01 0.02 0.02 0.02 0.03
0.02 0.02 0.02 0.02 0.02 0.02 0.02 0.02 0.03 0.03 0.03 0.04 0.05 0.04 0.04 0.05 0.05 0.04 0.04 0.04 0.06 0.09 0.09 0.10 0.10 0.13 0.17 0.18 0.17 0.17 0.14 0.09 0.06 0.04 0.03 0.02 0.01 0.01 0.01 0.01 0.01 0.01 0.02
0.01 0.02 0.01 0.01 0.01 0.01 0.01 0.01 0.01 0.02 0.02 0.04 0.06 0.05 0.04 0.05 0.06 0.05 0.04 0.03 0.03 0.05 0.06 0.06 0.06 0.07 0.09 0.10 0.11 0.11 0.12 0.12 0.10 0.06 0.04 0.03 0.02 0.02 0.01 0.01 0.01 0.01 0.01
0.01 0.01 0.01 0.01 0.01 0.01 0.01 0.01 0.01 0.02 0.02 0.03 0.06 0.07 0.07 0.07 0.07 0.05 0.04 0.04 0.04 0.05 0.05 0.06 0.06 0.06 0.06 0.06 0.07 0.06 0.06 0.06 0.06 0.06 0.06 0.05 0.04 0.04 0.03 0.02 0.02 0.01 0.01
0.01 0.01 0.00 0.01 0.01 0.01 0.01 0.01 0.01 0.01 0.01 0.02 0.04 0.05 0.06 0.07 0.07 0.06 0.06 0.05 0.04 0.06 0.08 0.07 0.07 0.07 0.06 0.06 0.06 0.05 0.06 0.04 0.03 0.04 0.04 0.04 0.04 0.04 0.04 0.04 0.03 0.03 0.02
0.01 0.01 0.01 0.01 0.01 0.00 0.00 0.01 0.01 0.01 0.01 0.01 0.02 0.03 0.04 0.04 0.05 0.06 0.06 0.05 0.05 0.06 0.08 0.09 0.08 0.09 0.08 0.08 0.08 0.07 0.06 0.05 0.04 0.03 0.03 0.03 0.03 0.04 0.03 0.04 0.04 0.04 0.04
0.01 0.01 0.01 0.01 0.01 0.00 0.01 0.01 0.01 0.01 0.01 0.01 0.02 0.02 0.02 0.02 0.03 0.04 0.06 0.06 0.06 0.06 0.08 0.10 0.09 0.09 0.09 0.11 0.10 0.08 0.06 0.05 0.04 0.04 0.03 0.03 0.03 0.03 0.03 0.03 0.03 0.04 0.04
0.01 0.01 0.01 0.01 0.01 0.01 0.01 0.01 0.01 0.01 0.01 0.01 0.02 0.02 0.02 0.02 0.02 0.04 0.05 0.06 0.06 0.06 0.07 0.08 0.09 0.09 0.09 0.09 0.09 0.08 0.06 0.06 0.05 0.04 0.03 0.03 0.03 0.03 0.03 0.03 0.03 0.03 0.03
0.02 0.02 0.02 0.02 0.01 0.01 0.01 0.02 0.02 0.01 0.01 0.02 0.02 0.02 0.02 0.02 0.02 0.03 0.04 0.05 0.05 0.06 0.07 0.08 0.08 0.09 0.09 0.09 0.09 0.08 0.07 0.07 0.05 0.04 0.03 0.03 0.02 0.02 0.03 0.03 0.03 0.03 0.02
0.02 0.02 0.02 0.02 0.02 0.01 0.01 0.02 0.02 0.01 0.01 0.02 0.03 0.02 0.02 0.02 0.02 0.04 0.04 0.04 0.05 0.05 0.06 0.07 0.08 0.08 0.09 0.09 0.09 0.09 0.08 0.07 0.07 0.05 0.04 0.02 0.02 0.02 0.03 0.03 0.03 0.03 0.03
0.02 0.02 0.02 0.02 0.01 0.01 0.01 0.02 0.03 0.02 0.01 0.02 0.04 0.03 0.02 0.02 0.03 0.04 0.05 0.05 0.05 0.05 0.05 0.05 0.06 0.06 0.06 0.07 0.08 0.07 0.07 0.06 0.06 0.05 0.04 0.03 0.02 0.03 0.02 0.02 0.03 0.04 0.04
0.01 0.01 0.01 0.02 0.02 0.02 0.02 0.02 0.03 0.03 0.02 0.03 0.04 0.03 0.02 0.02 0.03 0.04 0.05 0.05 0.04 0.04 0.05 0.05 0.05 0.04 0.04 0.05 0.06 0.05 0.06 0.05 0.04 0.04 0.03 0.03 0.03 0.03 0.02 0.02 0.02 0.03 0.04
0.01 0.01 0.01 0.01 0.01 0.02 0.02 0.02 0.03 0.03 0.03 0.03 0.03 0.03 0.02 0.02 0.02 0.03 0.03 0.04 0.04 0.05 0.05 0.04 0.04 0.03 0.03 0.04 0.04 0.04 0.05 0.05 0.03 0.03 0.02 0.02 0.03 0.03 0.03 0.02 0.02 0.02 0.03
0.00 0.00 0.00 0.00 0.01 0.01 0.02 0.03 0.03 0.04 0.04 0.03 0.03 0.03 0.02 0.02 0.02 0.02 0.03 0.03 0.04 0.05 0.04 0.04 0.04 0.04 0.03 0.03 0.04 0.03 0.04 0.04 0.03 0.03 0.03 0.02 0.02 0.02 0.02 0.02 0.02 0.02 0.02
0.00 0.00 0.00 0.00 0.01 0.01 0.02 0.03 0.03 0.03 0.03 0.03 0.03 0.04 0.03 0.02 0.02 0.03 0.03 0.04 0.04 0.04 0.04 0.04 0.03 0.03 0.02 0.02 0.03 0.03 0.03 0.03 0.03 0.03 0.02 0.02 0.02 0.02 0.02 0.02 0.02 0.02 0.02
0.00 0.00 0.00 0.01 0.01 0.01 0.01 0.02 0.02 0.03 0.03 0.03 0.03 0.04 0.04 0.03 0.03 0.04 0.04 0.04 0.04 0.04 0.05 0.04 0.04 0.04 0.03 0.03 0.04 0.04 0.04 0.03 0.03 0.02 0.02 0.02 0.02 0.02 0.03 0.03 0.03 0.03 0.03
0.00 0.00 0.00 0.01 0.01 0.01 0.02 0.02 0.02 0.03 0.03 0.02 0.02 0.03 0.04 0.04 0.04 0.04 0.04 0.03 0.03 0.03 0.03 0.04 0.04 0.04 0.04 0.04 0.04 0.04 0.04 0.04 0.03 0.03 0.02 0.02 0.02 0.02 0.03 0.03 0.04 0.03 0.03
MSLP
1035.32 1035.37 1035.37 1035.33 1035.22 1035.05 1034.80 1034.47 1034.08 1033.64 1033.18 1032.73 1032.29 1031.90 1031.53 1031.19 1030.84 1030.47 1030.04 1029.55 1029.00 1028.39 1027.76 1027.12 1026.49 1025.86 1025.25 1024.62 1023.95 1023.22 1022.40 1021.50 1020.53 1019.53 1018.53 1017.58 1016.72 1015.99 1015.38 1014.90 1014.54 1014.26 1014.05
1035.32 1035.42 1035.46 1035.44 1035.36 1035.21 1034.99 1034.71 1034.39 1034.03 1033.66 1033.28 1032.90 1032.53 1032.16 1031.77 1031.36 1030.90 1030.40 1029.85 1029.26 1028.66 1028.06 1027.47 1026.89 1026.33 1025.75 1025.14 1024.47 1023.71 1022.85 1021.90 1020.88 1019.81 1018.76 1017.75 1016.82 1016.00 1015.31 1014.75 1014.30 1013.96 1013.71
1035.14 1035.31 1035.41 1035.44 1035.40 1035.29 1035.13 1034.92 1034.68 1034.42 1034.14 1033.85 1033.53 1033.19 1032.80 1032.36 1031.87 1031.33 1030.74 1030.13 1029.51 1028.90 1028.31 1027.76 1027.22 1026.70 1026.15 1025.55 1024.88 1024.12 1023.25 1022.28 1021.25 1020.17 1019.10 1018.06 1017.09 1016.21 1015.44 1014.78 1014.24 1013.81 1013.49
1034.83 1035.08 1035.26 1035.35 1035.37 1035.32 1035.23 1035.10 1034.95 1034.78 1034.60 1034.38 1034.11 1033.79 1033.39 1032.91 1032.35 1031.73 1031.06 1030.39 1029.73 1029.10 1028.52 1027.98 1027.47 1026.96 1026.43 1025.84 1025.17 1024.41 1023.55 1022.60 1021.60 1020.55 1019.50 1018.47 1017.49 1016.56 1015.72 1014.97 1014.32 1013.78 1013.36
1034.47 1034.82 1035.08 1035.25 1035.33 1035.34 1035.30 1035.24 1035.16 1035.07 1034.96 1034.80 1034.58 1034.27 1033.86 1033.34 1032.73 1032.05 1031.33 1030.61 1029.92 1029.27 1028.68 1028.14 1027.63 1027.12 1026.58 1025.98 1025.31 1024.56 1023.73 1022.82 1021.87 1020.90 1019.90 1018.91 1017.94 1016.99 1016.09 1015.24 1014.48 1013.82 1013.28
1034.14 1034.59 1034.94 1035.17 1035.31 1035.36 1035.36 1035.34 1035.30 1035.25 1035.18 1035.06 1034.86 1034.57 1034.15 1033.62 1032.98 1032.27 1031.53 1030.78 1030.07 1029.42 1028.81 1028.26 1027.72 1027.18 1026.61 1025.99 1025.30 1024.56 1023.76 1022.91 1022.03 1021.14 1020.22 1019.29 1018.35 1017.40 1016.44 1015.51 1014.64 1013.86 1013.20
1033.90 1034.45 1034.86 1035.15 1035.31 1035.38 1035.40 1035.38 1035.34 1035.30 1035.24 1035.14 1034.95 1034.66 1034.25 1033.72 1033.08 1032.38 1031.64 1030.90 1030.19 1029.52 1028.91 1028.32 1027.75 1027.16 1026.54 1025.88 1025.17 1024.42 1023.64 1022.85 1022.04 1021.23 1020.40 1019.54 1018.64 1017.69 1016.70 1015.70 1014.73 1013.83 1013.07
1033.78 1034.39 1034.85 1035.16 1035.33 1035.40 1035.39 1035.34 1035.29 1035.23 1035.15 1035.04 1034.85 1034.57 1034.17 1033.66 1033.05 1032.38 1031.66 1030.95 1030.26 1029.60 1028.97 1028.35 1027.73 1027.08 1026.40 1025.68 1024.92 1024.16 1023.39 1022.64 1021.90 1021.16 1020.41 1019.61 1018.74 1017.80 1016.79 1015.73 1014.68 1013.70 1012.85
1033.74 1034.38 1034.86 1035.18 1035.34 1035.37 1035.33 1035.24 1035.14 1035.05 1034.94 1034.80 1034.61 1034.33 1033.95 1033.48 1032.91 1032.29 1031.63 1030.96 1030.30 1029.65 1029.01 1028.36 1027.68 1026.97 1026.21 1025.42 1024.62 1023.82 1023.06 1022.33 1021.63 1020.95 1020.25 1019.50 1018.66 1017.73 1016.69 1015.60 1014.49 1013.44 1012.53
1033.70 1034.35 1034.83 1035.13 1035.27 1035.28 1035.20 1035.07 1034.93 1034.79 1034.65 1034.49 1034.28 1034.01 1033.66 1033.22 1032.71 1032.15 1031.55 1030.93 1030.30 1029.67 1029.02 1028.34 1027.61 1026.83 1026.01 1025.15 1024.30 1023.47 1022.69 1021.96 1021.29 1020.64 1019.98 1019.25 1018.43 1017.49 1016.44 1015.31 1014.16 1013.06 1012.11
1033.59 1034.22 1034.69 1034.98 1035.11 1035.10 1035.00 1034.85 1034.68 1034.51 1034.34 1034.16 1033.94 1033.68 1033.35 1032.95 1032.49 1031.98 1031.43 1030.86 1030.28 1029.66 1029.01 1028.30 1027.53 1026.70 1025.81 1024.91 1024.01 1023.14 1022.35 1021.62 1020.95 1020.31 1019.65 1018.93 1018.11 1017.16 1016.08 1014.92 1013.73 1012.61 1011.62
1033.35 1033.95 1034.41 1034.70 1034.83 1034.83 1034.74 1034.59 1034.42 1034.24 1034.06 1033.87 1033.65 1033.39 1033.07 1032.70 1032.27 1031.80 1031.30 1030.78 1030.22 1029.62 1028.96 1028.24 1027.44 1026.57 1025.65 1024.71 1023.78 1022.89 1022.08 1021.34 1020.67 1020.02 1019.36 1018.62 1017.78 1016.80 1015.69 1014.49 1013.27 1012.11 1011.09
1032.95 1033.53 1033.99 1034.29 1034.45 1034.49 1034.44 1034.33 1034.18 1034.02 1033.84 1033.65 1033.42 1033.15 1032.83 1032.47 1032.07 1031.63 1031.16 1030.66 1030.12 1029.54 1028.89 1028.16 1027.35 1026.46 1025.53 1024.57 1023.62 1022.73 1021.90 1021.16 1020.48 1019.82 1019.13 1018.37 1017.49 1016.47 1015.32 1014.08 1012.81 1011.61 1010.55
1032.43 1033.00 1033.47 1033.80 1034.02 1034.12 1034.13 1034.08 1033.98 1033.85 1033.68 1033.48 1033.24 1032.96 1032.63 1032.26 1031.86 1031.43 1030.98 1030.50 1029.98 1029.41 1028.77 1028.05 1027.25 1026.36 1025.43 1024.47 1023.53 1022.63 1021.81 1021.06 1020.37 1019.69 1018.98 1018.19 1017.27 1016.21 1015.01 1013.71 1012.39 1011.13 1010.01
1031.86 1032.43 1032.91 1033.30 1033.58 1033.75 1033.84 1033.86 1033.81 1033.71 1033.56 1033.35 1033.09 1032.79 1032.43 1032.04 1031.63 1031.20 1030.75 1030.29 1029.79 1029.24 1028.62 1027.91 1027.12 1026.26 1025.33 1024.39 1023.46 1022.57 1021.76 1021.01 1020.30 1019.61 1018.88 1018.06 1017.10 1016.00 1014.75 1013.40 1012.02 1010.69 1009.50
1031.32 1031.89 1032.40 1032.82 1033.16 1033.42 1033.58 1033.66 1033.66 1033.58 1033.43 1033.21 1032.93 1032.58 1032.20 1031.78 1031.35 1030.92 1030.47 1030.02 1029.54 1029.01 1028.42 1027.74 1026.97 1026.12 1025.22 1024.29 1023.37 1022.49 1021.68 1020.93 1020.22 1019.51 1018.77 1017.92 1016.94 1015.81 1014.53 1013.13 1011.69 1010.29 1009.02
1030.87 1031.44 1031.96 1032.42 1032.81 1033.11 1033.33 1033.46 1033.49 1033.42 1033.26 1033.02 1032.70 1032.32 1031.90 1031.45 1031.01 1030.57 1030.13 1029.70 1029.24 1028.74 1028.17 1027.51 1026.77 1025.94 1025.05 1024.13 1023.22 1022.35 1021.53 1020.78 1020.06 1019.35 1018.59 1017.74 1016.75 1015.61 1014.31 1012.89 1011.41 1009.94 1008.60
1030.56 1031.10 1031.62 1032.09 1032.50 1032.83 1033.08 1033.23 1033.27 1033.20 1033.02 1032.75 1032.39 1031.97 1031.51 1031.05 1030.59 1030.15 1029.73 1029.32 1028.89 1028.42 1027.88 1027.24 1026.52 1025.70 1024.82 1023.90 1022.98 1022.10 1021.28 1020.51 1019.79 1019.07 1018.32 1017.47 1016.50 1015.37 1014.08 1012.66 1011.16 1009.67 1008.27
1030.35 1030.86 1031.35 1031.81 1032.22 1032.56 1032.81 1032.95 1032.99 1032.90 1032.69 1032.38 1031.99 1031.54 1031.06 1030.59 1030.13 1029.70 1029.30 1028.91 1028.51 1028.06 1027.55 1026.93 1026.22 1025.40 1024.52 1023.59 1022.66 1021.76 1020.91 1020.13 1019.40 1018.69 1017.94 1017.13 1016.19 1015.10 1013.85 1012.47 1010.99 1009.50 1008.07
1030.19 1030.66 1031.12 1031.55 1031.93 1032.25 1032.49 1032.62 1032.63 1032.52 1032.29 1031.96 1031.54 1031.07 1030.58 1030.10 1029.65 1029.23 1028.85 1028.49 1028.11 1027.69 1027.19 1026.58 1025.87 1025.06 1024.16 1023.22 1022.27 1021.35 1020.48 1019.69 1018.95 1018.24 1017.52 1016.74 1015.86 1014.83 1013.65 1012.33 1010.91 1009.46 1008.04
1030.04 1030.46 1030.87 1031.26 1031.61 1031.90 1032.12 1032.23 1032.22 1032.09 1031.85 1031.50 1031.07 1030.59 1030.10 1029.62 1029.18 1028.78 1028.41 1028.06 1027.70 1027.29 1026.80 1026.20 1025.49 1024.67 1023.77 1022.82 1021.85 1020.92 1020.04 1019.23 1018.49 1017.80 1017.11 1016.38 1015.56 1014.61 1013.52 1012.30 1010.96 1009.57 1008.19
1029.85 1030.22 1030.58 1030.93 1031.25 1031.51 1031.70 1031.80 1031.78 1031.64 1031.39 1031.04 1030.61 1030.14 1029.65 1029.18 1028.75 1028.35 1027.99 1027.64 1027.28 1026.87 1026.38 1025.78 1025.08 1024.26 1023.37 1022.42 1021.46 1020.52 1019.64 1018.84 1018.11 1017.44 1016.78 1016.10 1015.35 1014.50 1013.50 1012.38 1011.14 1009.84 1008.52
1029.60 1029.93 1030.25 1030.56 1030.85 1031.09 1031.27 1031.35 1031.33 1031.19 1030.95 1030.61 1030.19 1029.73 1029.26 1028.79 1028.36 1027.96 1027.58 1027.22 1026.85 1026.43 1025.93 1025.34 1024.64 1023.85 1022.97 1022.05 1021.11 1020.20 1019.35 1018.57 1017.86 1017.22 1016.60 1015.97 1015.29 1014.52 1013.62 1012.60 1011.47 1010.25 1009.01
1029.30 1029.60 1029.89 1030.17 1030.44 1030.66 1030.82 1030.90 1030.88 1030.75 1030.52 1030.20 1029.81 1029.36 1028.90 1028.44 1027.99 1027.58 1027.18 1026.80 1026.39 1025.95 1025.45 1024.86 1024.19 1023.43 1022.60 1021.72 1020.84 1019.99 1019.18 1018.45 1017.78 1017.17 1016.59 1016.01 1015.38 1014.68 1013.87 1012.95 1011.91 1010.78 1009.61
1028.98 1029.25 1029.51 1029.77 1030.01 1030.21 1030.36 1030.44 1030.42 1030.31 1030.10 1029.80 1029.43 1029.01 1028.55 1028.09 1027.64 1027.20 1026.77 1026.35 1025.92 1025.46 1024.94 1024.37 1023.72 1023.01 1022.25 1021.45 1020.65 1019.87 1019.14 1018.46 1017.84 1017.28 1016.74 1016.20 1015.62 1014.98 1014.23 1013.38 1012.42 1011.37 1010.26
1028.65 1028.89 1029.12 1029.35 1029.56 1029.74 1029.87 1029.94 1029.92 1029.82 1029.63 1029.36 1029.02 1028.62 1028.18 1027.72 1027.26 1026.79 1026.34 1025.88 1025.42 1024.93 1024.42 1023.86 1023.26 1022.61 1021.92 1021.22 1020.52 1019.83 1019.19 1018.58 1018.03 1017.51 1017.01 1016.50 1015.96 1015.35 1014.66 1013.86 1012.95 1011.96 1010.89
Thickness
5495 5499 5504 5509 5514 5519 5524 5528 5533 5538 5542 5546 5549 5553 5556 5558 5560 5562 5563 5565 5567 5568 5570 5572 5573 5575 5577 5578 5579 5581 5581 5583 5585 5588 5589 5592 5595 5598 5600 5602 5604 5606 5608
5481 5485 5489 5493 5498 5503 5508 5513 5517 5522 5526 5531 5534 5538 5542 5546 5549 5550 5552 5554 5556 5558 5560 5562 5564 5565 5567 5568 5570 5571 5572 5573 5576 5578 5580 5581 5584 5587 5591 5593 5595 5597 5599
5463 5468 5472 5476 5481 5487 5491 5497 5501 5506 5511 5516 5521 5525 5529 5533 5535 5538 5541 5543 5545 5548 5550 5552 5554 5556 5557 5559 5561 5562 5564 5565 5566 5569 5572 5574 5576 5576 5580 5583 5586 5589 5591
5448 5452 5456 5461 5466 5470 5475 5480 5485 5490 5495 5500 5505 5509 5513 5517 5521 5524 5528 5531 5534 5537 5539 5541 5543 5545 5547 5550 5551 5553 5556 5557 5558 5559 5563 5566 5569 5569 5571 5573 5576 5579 5581
5434 5437 5440 5444 5450 5454 5459 5464 5469 5475 5480 5485 5489 5493 5497 5502 5506 5510 5515 5519 5522 5525 5527 5529 5532 5534 5537 5539 5541 5543 5545 5548 5550 5552 5553 5555 5558 5561 5563 5565 5566 5568 5571
5421 5423 5426 5430 5434 5439 5444 5449 5454 5459 5464 5469 5474 5478 5482 5487 5492 5497 5501 5506 5510 5512 5514 5517 5519 5522 5525 5529 5531 5532 5535 5538 5541 5543 5546 5548 5550 5552 5554 5555 5556 5558 5560
5408 5409 5412 5416 5420 5424 5429 5433 5438 5444 5449 5454 5459 5464 5468 5474 5478 5483 5487 5491 5496 5499 5502 5504 5507 5510 5514 5517 5520 5521 5524 5527 5530 5533 5536 5540 5543 5545 5546 5547 5547 5548 5551
5396 5396 5398 5400 5404 5408 5413 5418 5423 5428 5434 5439 5444 5449 5454 5460 5465 5469 5473 5477 5482 5486 5490 5492 5495 5498 5501 5505 5508 5510 5513 5516 5519 5523 5526 5529 5533 5536 5538 5539 5539 5539 5541
5384 5384 5386 5388 5390 5394 5398 5403 5407 5412 5418 5424 5429 5434 5439 5445 5450 5455 5459 5464 5469 5473 5477 5480 5483 5486 5488 5492 5496 5499 5502 5505 5508 5512 5514 5518 5522 5525 5528 5530 5532 5533 5534
5371 5372 5374 5376 5377 5380 5383 5387 5391 5397 5402 5408 5414 5420 5425 5430 5435 5440 5445 5450 5455 5459 5463 5466 5469 5473 5476 5480 5483 5487 5491 5494 5497 5500 5504 5508 5511 5514 5517 5520 5522 5525 5527
5358 5359 5361 5364 5365 5368 5370 5374 5378 5383 5388 5394 5400 5405 5411 5416 5421 5426 5431 5435 5441 5445 5449 5452 5456 5460 5464 5467 5472 5476 5480 5483 5487 5490 5493 5497 5500 5503 5506 5509 5512 5514 5516
5346 5347 5349 5352 5354 5356 5358 5361 5365 5369 5374 5380 5385 5391 5397 5402 5407 5412 5417 5422 5427 5431 5435 5440 5444 5448 5452 5455 5459 5465 5469 5473 5476 5479 5483 5486 5489 5492 5495 5498 5500 5503 5506
5335 5335 5336 5338 5341 5343 5345 5348 5351 5355 5360 5366 5371 5377 5383 5388 5393 5399 5404 5409 5414 5418 5423 5427 5432 5436 5440 5445 5449 5453 5458 5462 5466 5469 5472 5475 5478 5481 5484 5487 5489 5491 5495
5324 5324 5324 5324 5326 5329 5332 5335 5338 5341 5347 5352 5358 5363 5368 5374 5379 5385 5391 5397 5402 5407 5412 5416 5421 5425 5429 5434 5438 5442 5446 5450 5454 5458 5461 5464 5467 5471 5474 5476 5479 5481 5483
5313 5313 5312 5312 5314 5317 5320 5322 5326 5329 5333 5338 5344 5350 5355 5361 5366 5372 5378 5384 5389 5395 5400 5405 5409 5414 5418 5423 5427 5431 5435 5439 5442 5446 5449 5452 5457 5461 5463 5466 5468 5470 5473
5301 5300 5301 5301 5303 5305 5308 5311 5314 5318 5321 5326 5332 5337 5343 5348 5353 5359 5365 5371 5377 5382 5388 5394 5398 5403 5408 5412 5417 5421 5424 5428 5431 5434 5437 5441 5445 5448 5452 5455 5458 5461 5463
5289 5288 5288 5289 5291 5293 5296 5299 5302 5306 5310 5315 5320 5326 5331 5336 5341 5346 5352 5358 5364 5370 5376 5381 5386 5392 5397 5401 5406 5410 5413 5416 5420 5423 5426 5429 5433 5436 5440 5443 5447 5450 5453
5278 5277 5277 5278 5280 5282 5285 5288 5292 5295 5300 5304 5309 5314 5319 5324 5329 5334 5340 5345 5351 5358 5363 5369 5375 5380 5385 5390 5394 5398 5401 5405 5409 5413 5417 5420 5423 5426 5429 5432 5435 5439 5442
5266 5266 5266 5267 5269 5272 5274 5277 5281 5284 5288 5293 5298 5303 5307 5312 5317 5322 5327 5333 5339 5346 5351 5357 5363 5368 5374 5378 5383 5387 5390 5394 5398 5402 5406 5410 5413 5417 5420 5423 5426 5428 5431
5257 5256 5256 5257 5259 5261 5263 5266 5269 5272 5276 5281 5286 5292 5296 5301 5306 5310 5315 5321 5327 5333 5340 5346 5351 5356 5362 5367 5372 5376 5380 5384 5387 5391 5395 5399 5403 5407 5410 5413 5415 5418 5420
5249 5248 5247 5248 5250 5251 5253 5255 5258 5261 5265 5270 5275 5280 5285 5289 5294 5299 5304 5309 5315 5322 5328 5334 5341 5346 5351 5356 5361 5366 5370 5373 5377 5381 5384 5388 5393 5397 5400 5403 5405 5408 5410
5240 5239 5239 5240 5240 5241 5242 5245 5248 5251 5255 5260 5265 5270 5274 5278 5284 5289 5294 5299 5304 5310 5316 5323 5329 5335 5340 5345 5350 5355 5360 5364 5367 5370 5374 5378 5382 5385 5388 5391 5394 5396 5398
5231 5230 5229 5230 5231 5231 5232 5234 5238 5242 5246 5251 5255 5260 5264 5269 5273 5278 5283 5288 5293 5299 5305 5312 5318 5324 5330 5335 5340 5345 5349 5353 5357 5360 5364 5367 5370 5373 5376 5379 5382 5384 5386
5222 5221 5220 5221 5222 5222 5223 5225 5229 5233 5237 5241 5246 5251 5255 5260 5264 5268 5273 5278 5283 5288 5295 5301 5307 5313 5319 5325 5330 5334 5338 5343 5346 5349 5353 5356 5359 5362 5365 5368 5370 5372 5375
5213 5212 5211 5211 5213 5214 5215 5217 5220 5224 5228 5232 5237 5242 5246 5250 5254 5259 5263 5268 5274 5279 5285 5292 5297 5303 5310 5315 5321 5325 5329 5333 5337 5340 5342 5344 5347 5350 5353 5355 5358 5360 5363
5204 5203 5203 5204 5204 5205 5207 5210 5212 5215 5219 5224 5229 5232 5236 5240 5245 5250 5255 5260 5265 5271 5277 5283 5288 5294 5300 5306 5311 5316 5320 5325 5328 5330 5332 5334 5337 5339 5342 5344 5346 5349 5351